Regional Weather Roundup
Issued by NWS

Home | Current Version | Previous Version | Graphics & Text | Print | Product List | Glossary Off
Versions: 1 2 3 4 5 6 7 8 9 10 11 12 13 14 15 16 17 18 19 20 21 22 23 24 25 26 27 28 29 30 31 32 33 34 35 36 37 38 39 40 41 42 43 44 45 46 47 48 49 50

663
ASUS43 KFSD 290410
RWRSD

WEATHER ROUNDUP FOR SOUTH DAKOTA
NATIONAL WEATHER SERVICE SIOUX FALLS SD
1100 PM CDT SUN MAY 28 2017

NOTE: "FAIR" INDICATES FEW OR NO CLOUDS BELOW 12,000 FEET WITH NO
SIGNIFICANT WEATHER AND/OR OBSTRUCTIONS TO VISIBILITY.


SDZ001>005-009-010-012>017-290500-
NORTHWEST AND NORTH CENTRAL SOUTH DAKOTA

CITY           SKY/WX    TMP DP  RH WIND       PRES   REMARKS
BUFFALO          N/A     54  34  46 NW13      30.01R
FAITH            N/A     53  34  48 N9        30.01R
MOBRIDGE       PTCLDY    59  37  44 N15G23    29.94R
$$

SDZ012>016-024>037-041>051-057-063-072>074-290500-
SOUTHWEST AND SOUTH CENTRAL SOUTH DAKOTA

CITY           SKY/WX    TMP DP  RH WIND       PRES   REMARKS
RAPID CTY ARPT PTCLDY    53  42  66 NW9       30.07R
PIERRE         CLEAR     57  36  45 N9        29.95R
CUSTER         CLOUDY    50  35  56 NW8       30.18R
ELLSWORTH AFB  MOCLDY    52  43  71 NW8       30.07R
PHILIP         MOCLDY    56  49  77 VRB3      30.01R
PINE RIDGE     CLOUDY    53  49  86 W7        30.10R
SPEARFISH      FAIR      59  39  47 W14G21    30.12R
WINNER         FAIR      59  49  69 W10       29.95S
$$

SDZ004>011-016>023-039-040-290500-
NORTHEAST SOUTH DAKOTA

CITY           SKY/WX    TMP DP  RH WIND       PRES   REMARKS
ABERDEEN       MOCLDY    52  43  71 NW9       29.91R
WATERTOWN      CLEAR     52  44  74 NW8       29.87S
BROOKINGS      CLOUDY    54  48  80 NW8       29.89R
SISSETON         N/A     55  45  68 NW15      29.83S
$$

SDZ017-020-022-023-036>040-048>070-290500-
SOUTHEAST SOUTH DAKOTA

CITY           SKY/WX    TMP DP  RH WIND       PRES   REMARKS
SIOUX FALLS    PTCLDY    53  49  86 CALM      29.88S
HURON          CLEAR     55  48  77 N7        29.91R
CHAMBERLAIN    MOCLDY    65  46  49 N10       29.95R
MITCHELL       PTCLDY    59  46  62 N5        29.92R
YANKTON        PTCLDY    58  47  66 CALM      29.91R
$$

ABBREVIATIONS USED IN REMARKS
   TC - TEMPERATURE IN CELSIUS
  WCI - WIND CHILL INDEX
   HX - HEAT INDEX
  VSB - VISIBILITY





USA.gov is the U.S. government's official web portal to all federal, state and local government web resources and services.